TimeEDT,TemperatureF,Dew PointF,Humidity,Sea Level PressureIn,VisibilityMPH,Wind Direction,Wind SpeedMPH,Gust SpeedMPH,PrecipitationIn,Events,Conditions,WindDirDegrees,DateUTC
12:53 AM,70.0,57.0,63,29.96,10.0,SW,4.6,-,N/A,,Partly Cloudy,220,2013-04-10 04:53:00
1:53 AM,70.0,57.9,65,29.94,10.0,SW,3.5,-,N/A,,Overcast,220,2013-04-10 05:53:00
2:53 AM,70.0,57.9,65,29.94,10.0,Calm,Calm,-,N/A,,Mostly Cloudy,0,2013-04-10 06:53:00
3:53 AM,63.0,55.9,78,29.93,10.0,SSE,3.5,-,N/A,,Mostly Cloudy,160,2013-04-10 07:53:00
4:53 AM,64.0,57.9,80,29.93,10.0,Calm,Calm,-,N/A,,Mostly Cloudy,0,2013-04-10 08:53:00
5:53 AM,66.9,57.9,73,29.93,10.0,SSW,4.6,-,N/A,,Mostly Cloudy,200,2013-04-10 09:53:00
6:53 AM,68.0,57.0,68,29.93,10.0,South,4.6,-,N/A,,Overcast,190,2013-04-10 10:53:00
7:53 AM,70.0,57.0,63,29.93,10.0,SSW,6.9,-,N/A,,Mostly Cloudy,210,2013-04-10 11:53:00
8:53 AM,73.0,57.9,59,29.92,10.0,SW,8.1,-,N/A,,Partly Cloudy,220,2013-04-10 12:53:00
9:53 AM,73.9,59.0,59,29.93,10.0,SW,8.1,23.0,N/A,,Mostly Cloudy,230,2013-04-10 13:53:00
10:53 AM,77.0,61.0,58,29.93,10.0,SW,16.1,24.2,N/A,,Mostly Cloudy,220,2013-04-10 14:53:00
11:53 AM,79.0,62.1,56,29.93,10.0,SW,15.0,26.5,N/A,,Partly Cloudy,220,2013-04-10 15:53:00
12:53 PM,81.0,63.0,54,29.92,10.0,SW,16.1,23.0,N/A,,Scattered Clouds,220,2013-04-10 16:53:00
1:53 PM,82.9,63.0,51,29.90,10.0,SW,12.7,25.3,N/A,,Partly Cloudy,220,2013-04-10 17:53:00
2:53 PM,84.9,61.0,44,29.86,10.0,SW,13.8,24.2,N/A,,Partly Cloudy,220,2013-04-10 18:53:00
3:53 PM,84.9,60.1,43,29.84,10.0,South,15.0,24.2,N/A,,Mostly Cloudy,190,2013-04-10 19:53:00
4:53 PM,84.9,59.0,41,29.82,10.0,SW,13.8,29.9,N/A,,Partly Cloudy,230,2013-04-10 20:53:00
5:53 PM,82.9,59.0,44,29.81,10.0,SSW,11.5,24.2,N/A,,Clear,200,2013-04-10 21:53:00
6:53 PM,82.0,57.9,44,29.80,10.0,SSW,9.2,-,N/A,,Clear,200,2013-04-10 22:53:00
7:53 PM,80.1,59.0,48,29.80,10.0,SSW,4.6,-,N/A,,Mostly Cloudy,200,2013-04-10 23:53:00
8:53 PM,79.0,59.0,50,29.79,10.0,South,4.6,-,N/A,,Scattered Clouds,190,2013-04-11 00:53:00
9:53 PM,69.1,57.9,68,29.80,10.0,NNE,9.2,-,N/A,,Overcast,30,2013-04-11 01:53:00
10:53 PM,66.0,57.0,73,29.80,10.0,ENE,4.6,-,N/A,,Clear,60,2013-04-11 02:53:00
11:53 PM,66.0,57.0,73,29.82,10.0,NE,12.7,16.1,N/A,,Overcast,50,2013-04-11 03:53:00